Snowfall_Accumulation
0.0 0.0 0.0 0.0 0.0 0.0 0.0 0.0 0.0 0.0 0.0 0.0 0.0 0.0 0.0 0.0 0.0 0.0 0.0 0.0 7.0 8.5 1.8 0.8 2.2 3.1 2.2 2.1 2.1 1.2 0.5 1.0 0.5 5.8 5.0 2.6 3.0 0.9 0.8 0.8 0.4 0.3 2.2 3.1 4.7 7.2 7.3 1.7 0.1 0.5 3.5 1.3 0.8 0.8
0.0 0.0 0.0 0.0 0.0 0.0 0.0 0.0 0.0 0.0 0.0 0.0 0.0 0.0 0.0 0.0 0.0 0.0 1.4 0.0 0.0 10.7 3.3 0.3 1.5 1.3 1.0 0.1 2.5 1.1 1.1 1.6 3.0 4.6 4.3 3.1 1.4 1.7 2.5 4.0 1.1 2.3 3.6 3.7 4.7 6.0 6.4 3.8 4.6 3.7 3.1 1.8 1.4 1.3
0.0 0.0 0.0 0.0 0.0 0.0 0.0 0.0 0.0 0.0 0.0 0.0 0.0 0.0 0.0 0.0 0.0 0.0 0.2 1.1 3.5 5.9 3.4 2.1 1.7 1.4 0.4 0.1 0.5 4.5 1.2 2.0 4.7 7.3 6.8 4.9 4.9 3.0 2.1 2.9 3.0 1.8 2.9 3.8 3.1 3.5 2.4 3.1 2.0 2.3 2.2 2.9 1.5 0.3
0.0 0.0 0.0 0.0 0.0 0.0 0.0 0.0 0.0 0.0 0.0 0.0 0.0 0.0 0.0 0.0 0.0 0.0 0.8 0.0 1.3 1.0 3.3 1.8 1.4 1.1 0.3 0.1 0.1 0.0 2.6 0.2 2.6 4.7 12.8 12.0 9.5 1.9 2.1 3.7 2.1 2.5 2.4 4.9 6.6 4.4 4.2 4.5 2.4 3.3 2.0 0.4 0.0 0.0
0.0 0.0 0.0 0.0 0.0 0.0 0.0 0.0 0.0 0.0 0.0 0.0 0.0 0.0 0.0 0.0 0.0 0.0 0.0 3.2 3.8 4.4 7.7 2.4 1.1 0.9 0.0 0.0 0.4 0.1 1.9 3.8 7.6 14.6 17.5 15.5 10.1 9.3 7.6 6.4 9.2 7.9 7.6 8.0 8.6 7.9 6.8 7.4 6.4 4.5 2.6 2.3 1.7 1.3
0.0 0.0 0.0 0.0 0.0 0.0 0.0 0.0 0.0 0.0 0.0 0.0 0.0 0.0 0.0 0.0 0.0 0.7 1.0 0.2 0.2 0.4 8.7 5.2 1.4 0.4 0.0 0.7 0.0 0.4 1.3 4.7 11.2 15.2 14.3 14.6 11.5 11.9 16.8 11.3 10.3 8.1 7.8 9.1 10.7 10.8 10.9 10.7 7.8 7.3 6.2 5.4 4.8 2.8
0.0 0.0 0.0 0.0 0.0 0.0 0.0 0.0 0.0 0.0 0.0 0.0 0.0 0.2 0.0 0.0 0.1 2.2 2.6 2.6 1.0 1.2 5.0 5.8 2.3 0.3 0.0 0.7 1.0 1.4 1.8 8.9 12.3 16.4 15.0 11.9 10.0 6.9 17.5 12.7 9.4 8.3 8.9 10.6 10.1 7.2 7.6 7.7 10.6 9.9 9.8 11.2 9.0 8.5
0.0 0.0 0.0 0.0 0.0 0.0 0.0 0.0 0.0 0.0 0.0 0.0 0.0 0.2 0.0 0.0 0.8 2.5 3.9 3.3 1.3 1.6 6.3 12.2 3.4 0.2 0.0 1.6 5.7 3.9 5.7 9.8 9.0 12.0 11.2 9.2 8.2 7.4 19.3 13.2 9.5 7.7 5.2 4.7 6.7 7.4 10.6 9.7 7.9 7.8 7.0 6.7 5.4 5.5
0.0 0.0 0.0 0.0 0.0 0.0 0.0 0.0 0.0 0.0 0.0 0.0 0.2 0.0 0.0 0.0 0.8 0.0 0.1 0.0 2.6 0.8 16.4 11.0 4.7 3.6 0.0 0.2 2.8 6.0 4.7 9.2 5.3 7.1 7.8 3.4 6.7 13.9 14.3 10.0 7.6 7.0 5.8 7.7 6.5 5.9 4.5 4.8 4.8 3.9 4.0 3.6 3.1 3.6
0.0 0.0 0.0 0.0 0.0 0.0 0.0 0.0 0.0 0.0 0.0 0.0 0.0 0.0 4.8 0.1 0.1 0.1 0.8 5.9 11.4 8.4 8.4 11.3 1.1 4.3 0.2 1.7 5.0 7.9 10.5 10.0 12.0 5.9 2.7 9.0 14.3 15.2 12.2 9.4 7.9 6.2 6.8 5.0 3.5 2.2 1.5 1.5 2.0 1.9 2.0 2.2 2.4 2.7
0.0 0.0 0.0 0.0 0.0 0.0 0.0 0.0 0.0 0.0 0.0 0.0 5.2 5.7 0.0 0.0 0.0 1.8 13.9 15.1 10.5 13.0 7.3 4.7 1.5 4.3 1.7 9.7 11.7 10.7 19.5 12.5 11.8 8.0 7.9 10.0 13.3 12.2 7.5 5.5 4.7 4.4 3.1 2.1 1.9 2.0 1.4 1.4 1.3 0.8 0.6 0.5 0.5 0.8
0.0 0.0 0.0 0.0 0.0 0.0 0.0 0.0 0.0 0.0 0.0 0.0 0.0 0.0 0.0 11.0 17.4 16.4 12.2 8.0 10.7 7.6 5.5 4.9 2.8 2.0 2.4 2.3 14.8 13.8 17.7 15.3 11.9 3.7 10.5 9.3 11.2 6.1 3.9 2.4 1.7 0.8 0.3 0.1 0.1 0.1 0.1 0.1 0.1 0.1 0.0 0.1 0.0 0.0
0.0 0.0 0.0 0.0 0.0 0.0 0.0 0.0 0.0 0.0 0.0 0.0 9.9 29.7 23.1 20.8 18.4 12.1 6.1 8.7 8.9 4.6 5.1 5.2 5.3 2.1 2.4 3.8 15.5 15.7 18.1 13.2 2.9 7.7 6.9 8.1 4.6 2.4 2.0 1.2 0.4 0.0 0.0 0.0 0.0 0.0 0.0 0.0 0.0 0.1 0.0 0.0 0.0 0.0
0.0 0.0 0.0 0.0 0.0 0.0 0.0 0.0 0.0 0.0 0.0 14.0 55.4 43.0 19.4 12.9 3.9 7.4 6.0 5.7 5.0 6.2 5.8 5.4 7.2 8.5 6.7 14.4 12.9 14.9 6.8 10.8 9.9 4.9 6.1 5.7 3.4 2.1 1.1 0.6 0.7 1.0 2.3 2.2 1.2 0.7 0.5 0.5 0.4 0.2 0.2 0.2 0.1 0.1
0.0 0.0 0.0 0.0 0.0 0.0 0.0 0.0 0.0 0.0 4.6 58.5 42.0 21.8 7.9 2.8 1.7 3.1 1.8 1.4 2.9 3.8 4.5 5.7 8.4 8.0 9.7 13.5 10.4 7.1 10.4 5.3 4.2 5.1 6.2 3.8 2.2 1.0 1.1 1.6 1.5 1.8 3.2 4.3 4.7 4.2 4.0 3.5 2.7 2.1 1.2 0.8 0.6 0.2
0.0 0.0 0.0 0.0 0.0 0.0 0.0 0.0 0.0 0.0 44.6 54.0 33.4 10.2 1.1 0.8 0.3 0.6 1.9 2.0 1.7 4.7 3.8 6.4 9.4 12.1 9.8 9.9 10.2 6.3 6.0 5.3 6.2 6.6 6.1 4.0 3.4 2.8 2.5 1.9 1.4 0.9 0.9 0.7 0.4 0.4 0.9 0.6 1.1 2.0 1.3 1.3 1.5 1.6
0.0 0.9 0.1 0.0 0.0 0.0 0.0 0.0 28.0 78.0 75.6 48.9 15.2 1.6 1.0 0.9 1.6 1.2 1.2 1.8 1.3 4.2 6.3 8.9 14.0 9.1 8.7 11.6 7.9 6.4 8.5 7.3 4.2 1.9 2.1 3.2 3.9 4.0 3.5 3.0 2.4 1.2 1.4 0.8 0.5 0.4 0.5 0.3 0.1 0.5 0.3 0.1 0.2 1.5
1.9 0.0 0.0 0.0 0.0 0.0 0.4 12.5 57.8 69.5 53.9 24.3 3.7 1.3 0.3 0.3 0.4 0.2 0.8 1.0 1.6 3.0 2.7 7.6 8.7 11.7 10.1 6.6 7.8 7.5 5.1 1.6 1.5 1.1 1.9 2.5 3.2 4.3 3.3 2.1 1.9 1.3 1.4 1.7 1.6 1.1 1.5 1.1 0.8 0.4 0.4 0.5 0.6 0.3
0.3 0.0 0.0 0.0 0.0 9.4 50.1 59.9 46.3 39.4 20.8 6.2 1.1 1.0 0.4 0.3 0.4 0.3 0.2 0.1 0.3 2.2 4.1 12.5 15.2 10.0 4.3 3.9 3.5 1.8 1.3 1.2 0.5 0.5 1.1 2.1 3.4 4.0 3.6 2.8 1.6 1.0 1.4 1.8 1.5 2.2 2.2 1.5 1.1 0.9 1.0 1.1 1.5 0.9
0.0 0.0 0.0 0.0 0.0 44.5 59.8 54.2 35.6 18.3 9.2 4.4 1.7 1.6 1.7 1.2 0.9 0.6 0.2 1.5 4.3 9.0 16.8 15.2 5.5 3.1 2.9 2.2 1.8 1.6 1.3 0.7 0.4 0.1 0.0 1.2 1.4 2.0 2.2 2.1 1.8 1.3 1.6 1.8 2.1 2.6 2.3 1.7 1.7 1.3 1.6 2.2 2.2 1.1
0.0 0.0 0.0 1.6 27.4 45.8 50.5 30.1 22.6 13.4 8.2 4.2 5.2 2.7 3.9 3.0 3.2 3.8 5.4 5.6 14.3 19.6 11.2 3.1 2.9 2.5 2.3 1.4 0.8 0.7 0.5 0.6 0.7 0.9 1.2 0.6 0.6 0.7 0.8 1.4 1.7 1.6 1.9 1.7 2.1 1.8 2.0 1.7 1.3 1.6 2.5 1.5 1.5 2.1
2.5 0.0 28.5 30.3 68.1 63.2 48.8 24.1 12.4 9.6 5.2 6.9 5.8 5.4 6.4 6.3 6.5 7.1 7.1 14.6 15.7 7.8 4.1 3.2 2.2 1.6 0.8 0.5 0.3 0.3 0.4 0.1 0.0 0.0 0.1 0.5 0.0 0.0 0.0 0.1 0.4 1.0 1.6 1.7 2.1 2.5 1.6 1.6 2.0 3.0 1.9 1.4 1.4 1.2
0.7 6.4 48.7 50.7 47.7 42.9 29.2 15.7 11.3 9.7 8.4 9.4 7.3 7.0 8.6 6.8 7.3 8.0 11.7 8.1 6.5 4.9 3.5 2.5 1.8 0.7 0.8 0.0 0.2 0.1 0.1 0.3 0.1 0.1 0.0 0.1 0.1 0.2 0.1 0.1 0.1 0.4 0.9 1.0 1.6 2.4 1.8 1.7 1.8 2.9 1.6 0.2 1.0 1.6
3.4 50.0 52.8 48.0 35.7 25.7 19.6 17.0 11.2 7.2 8.2 8.1 8.2 8.0 6.2 6.0 9.2 10.7 7.1 3.5 5.2 4.9 3.1 2.7 2.3 1.3 0.7 0.3 0.6 0.7 0.8 0.8 0.7 0.3 0.3 0.9 0.6 0.4 0.3 0.3 0.3 0.3 0.6 1.5 2.0 2.2 1.1 1.7 1.9 1.5 1.0 1.5 1.7 1.7
61.7 55.8 38.1 33.2 23.7 13.0 7.4 5.9 4.5 3.8 4.6 4.7 5.4 6.4 6.4 7.0 9.7 7.9 3.6 3.6 4.1 4.9 4.7 3.0 2.7 2.4 2.5 1.5 0.8 1.5 1.4 1.9 2.5 1.4 1.0 1.3 1.0 0.8 1.0 0.5 0.2 0.2 0.4 2.0 1.6 1.4 1.9 2.3 2.2 1.8 1.5 3.5 4.6 5.9
49.4 26.8 19.6 11.0 5.6 1.9 2.2 2.9 2.9 2.9 3.2 5.3 5.3 4.7 4.7 6.4 7.4 5.6 3.3 3.9 4.3 5.0 5.7 4.2 3.9 2.6 2.3 3.1 2.4 1.9 2.9 3.2 3.8 2.9 1.5 1.3 2.1 3.6 3.5 2.1 1.1 0.4 0.4 1.3 4.1 5.1 3.0 3.2 4.0 3.8 3.8 3.7 5.4 6.9
26.4 12.2 5.8 1.9 0.8 0.5 1.0 2.1 2.5 3.1 3.9 4.4 3.3 3.8 4.5 8.3 4.7 2.7 3.1 4.0 5.4 6.1 5.9 5.9 5.2 4.6 3.9 3.4 3.2 3.6 4.0 4.2 4.9 4.0 2.2 2.9 2.1 2.2 3.3 6.6 5.6 1.4 4.2 4.8 4.6 6.2 7.9 5.7 4.7 4.5 5.2 3.8 4.2 6.2
6.8 2.4 2.4 1.7 0.7 0.9 1.4 2.1 2.2 2.8 2.6 1.7 1.8 2.6 2.3 2.2 2.0 2.6 3.7 4.6 5.6 6.0 6.6 6.3 5.8 4.8 5.3 4.3 4.8 5.5 5.1 5.2 4.9 4.6 4.4 4.1 4.3 3.5 3.5 4.7 5.9 7.8 9.9 8.7 10.1 9.5 7.8 7.9 7.3 6.1 5.6 5.1 4.3 4.0
2.8 2.2 1.2 1.6 1.0 1.5 2.7 2.5 2.0 1.8 1.3 1.2 1.4 1.7 2.2 2.0 3.1 3.5 3.8 4.4 5.5 6.0 5.4 5.0 4.3 4.4 4.6 5.8 5.5 5.4 5.6 6.3 6.0 4.7 3.4 3.3 3.4 3.7 3.9 5.5 6.0 6.6 6.5 6.2 4.9 6.8 9.4 12.8 13.2 12.0 8.5 6.7 5.5 5.3
2.8 2.4 1.7 1.7 1.3 1.5 1.4 1.1 1.8 1.8 1.5 2.1 1.8 2.1 2.3 3.1 4.6 4.3 4.2 4.8 5.0 4.9 4.8 5.4 5.0 4.5 5.0 4.8 5.0 5.4 5.2 5.4 7.4 9.9 10.7 5.5 5.0 5.2 6.1 6.4 6.9 6.4 6.0 6.3 6.6 5.7 6.1 6.7 6.1 5.6 6.9 7.0 7.9 8.2
2.3 1.8 2.4 1.9 2.0 2.1 2.3 2.6 2.5 3.1 2.6 2.6 2.2 2.2 2.9 3.9 5.3 4.5 3.9 4.4 4.5 4.0 4.7 5.8 5.5 5.5 5.7 5.4 6.1 6.3 4.6 4.7 5.1 7.0 8.5 10.7 9.0 8.3 8.1 9.7 8.8 8.3 8.4 8.2 7.5 5.9 6.3 6.4 5.8 5.9 6.5 6.3 6.0 6.7
2.7 3.1 2.9 2.3 2.7 3.0 3.3 3.1 3.0 3.9 4.5 4.4 3.8 3.8 4.5 4.6 5.5 5.2 3.7 3.7 4.3 4.4 4.6 4.9 4.6 5.0 5.8 6.6 6.5 7.1 8.2 8.2 7.5 8.1 9.4 9.6 11.8 12.4 12.9 9.2 8.5 9.1 8.6 8.7 8.5 8.9 8.3 8.1 8.6 8.1 7.9 7.2 6.9 6.6
5.0 4.5 4.2 3.8 2.7 4.0 2.9 3.7 4.0 4.2 3.6 3.6 3.7 3.6 3.7 3.7 4.0 2.7 2.9 3.4 4.6 5.5 5.7 5.5 5.4 5.8 4.9 6.0 5.9 6.1 6.5 7.2 7.9 10.4 11.6 12.4 13.6 15.7 13.8 8.5 8.7 9.2 9.6 9.3 9.7 9.8 9.8 9.5 8.9 8.6 8.4 8.2 7.5 7.1